Regional Weather Roundup
Issued by NWS

Home | Current Version | Previous Version | Graphics & Text | Print | Product List | Glossary On
Versions: 1 2 3 4 5 6 7 8 9 10 11 12 13 14 15 16 17 18 19 20 21 22 23 24 25 26 27 28 29 30 31 32 33 34 35 36 37 38 39 40 41 42 43 44 45 46 47 48 49 50
000
ASUS43 KFSD 281502
RWRSD

WEATHER ROUNDUP FOR SOUTH DAKOTA
NATIONAL WEATHER SERVICE SIOUX FALLS SD
900 AM CST SUN DEC 28 2014

NOTE: "FAIR" INDICATES FEW OR NO CLOUDS BELOW 12,000 FEET WITH NO
SIGNIFICANT WEATHER AND/OR OBSTRUCTIONS TO VISIBILITY.


SDZ001>005-009-010-012>017-281600-
NORTHWEST AND NORTH CENTRAL SOUTH DAKOTA

CITY           SKY/WX    TMP DP  RH WIND       PRES   REMARKS
BUFFALO          N/A     18  12  77 SE3       29.86R
FAITH            N/A     14   8  77 S7        29.98R WCI   4
MOBRIDGE       CLOUDY    14  10  84 SE9       30.05R WCI   2
$$

SDZ012>016-024>037-041>051-057-063-072>074-281600-
SOUTHWEST AND SOUTH CENTRAL SOUTH DAKOTA

CITY           SKY/WX    TMP DP  RH WIND       PRES   REMARKS
RAPID CTY ARPT MOCLDY    10   3  73 NW3       29.94R
PIERRE         FOG        2   0  91 E5        30.06R VSB 1/4 WCI  -8
CUSTER         MOCLDY     9   2  73 N3        29.81F
ELLSWORTH AFB  MOCLDY    15   5  65 W8        29.92S WCI   4
PHILIP         PTCLDY     2  -3  80 W6        30.02R WCI  -9
PINE RIDGE     PTCLDY     2  -3  80 NW3       29.95S
WINNER         FAIR       8   2  76 S6        30.05R WCI  -2
$$

SDZ004>011-016>023-039-040-281600-
NORTHEAST SOUTH DAKOTA

CITY           SKY/WX    TMP DP  RH WIND       PRES   REMARKS
ABERDEEN       CLOUDY    16  12  84 NE12      30.15R WCI   3
WATERTOWN      CLOUDY     9   5  84 NW7       30.09R WCI  -2
SISSETON         N/A     11   8  88 N15       30.18R WCI  -5
$$

SDZ017-020-022-023-036>040-048>070-281600-
SOUTHEAST SOUTH DAKOTA

CITY           SKY/WX    TMP DP  RH WIND       PRES   REMARKS
SIOUX FALLS    PTCLDY    -1  -1 100 CALM      30.11R
HURON          PTCLDY    -1  -5  82 CALM      30.12R
MITCHELL       PTCLDY     2  -1  88 N3        30.13R
YANKTON        PTCLDY     5   3  92 CALM      30.13S VSB 1
$$

ABBREVIATIONS USED IN REMARKS
   TC - TEMPERATURE IN CELSIUS
  WCI - WIND CHILL INDEX
   HX - HEAT INDEX
  VSB - VISIBILITY



USA.gov is the U.S. government's official web portal to all federal, state and local government web resources and services.